Weather in Pirinem'

Russia / Arkhangel'skaya Oblast'     64°13′45″N   44°13′37″E
temp.,
°C
wind,
m/s
gust,
m/s
humid.,
%
clouds,
%
prec.,
mm/h
press.,
hPa
HPBL,
m
29 june, wed
wed2900:00+5n27675 0.0 1027142
03:00+4n237759 0.0 102853
06:00+9nnw2358100 0.0 1027277
09:00+13nnw344092 0.0 1026698
12:00+18nw352566 0.0 10231371
15:00+21nw46225 0.0 10211810
18:00+21nnw47286 0.0 10191879
21:00+15nnw274598 0.0 1018194
30 june, thu
thu3000:00+10n267231 0.0 1019115
03:00+8ne258780 0.0 1020116
06:00+11ene3561100 0.0 1021393
09:00+16ne243595 0.0 1021891
12:00+19ne34265 0.0 10211329
15:00+21ne34235 0.0 10201621
18:00+21ne34257 0.0 10201516
21:00+15ene11485 0.0 102011
1 july, fri
fri100:00+11sse115271 0.0 102010
03:00+10sw115667 0.0 102110
06:00+16wsw24445 0.0 1020210
09:00+17w115198 0.0 101923
12:00+20nw3656100 0.1 10181060
15:00+20nnw36592 0.1 1018922
18:00+20n57550 0.0 10181145
21:00+15n377374 0.0 1018459
2 july, sat
sat200:00+10n38930 0.0 1019241
03:00+8n379941 0.0 1020212
06:00+10n348592 0.0 1020391
09:00+14nne347065 0.0 1019688
12:00+19nne335624 0.0 1019989
15:00+21ne23505 0.0 10181131
18:00+22ne225017 0.0 10171166
21:00+17ene11715 0.0 101711
3 july, sun
sun300:00+13ese11840 0.0 101811
03:00+12ssw118831 0.0 101710
06:00+18sw12665 0.0 1017230
09:00+23wsw22485 0.0 10161035
12:00+27w233261 0.0 10151714
15:00+29w2334100 0.0 10132009
18:00+28wnw243810 0.0 10122008
21:00+22sw22605 0.0 101236